TimeEDT,TemperatureF,Dew PointF,Humidity,Sea Level PressureIn,VisibilityMPH,Wind Direction,Wind SpeedMPH,Gust SpeedMPH,PrecipitationIn,Events,Conditions,WindDirDegrees,DateUTC
12:54 AM,37.9,15.1,39,30.06,10.0,SSE,5.8,-,N/A,,Clear,150,2013-03-31 04:54:00
1:54 AM,39.0,15.1,38,30.04,10.0,SSE,10.4,-,N/A,,Clear,150,2013-03-31 05:54:00
2:54 AM,37.9,17.1,43,30.01,10.0,SSE,9.2,-,N/A,,Clear,150,2013-03-31 06:54:00
3:54 AM,39.0,18.0,43,29.97,10.0,SSE,10.4,-,N/A,,Clear,160,2013-03-31 07:54:00
4:54 AM,39.0,19.0,45,29.94,10.0,South,9.2,-,N/A,,Clear,170,2013-03-31 08:54:00
5:54 AM,37.9,19.9,48,29.93,10.0,South,6.9,-,N/A,,Clear,170,2013-03-31 09:54:00
6:54 AM,39.0,21.0,49,29.92,10.0,SSW,5.8,-,N/A,,Partly Cloudy,200,2013-03-31 10:54:00
7:54 AM,39.0,21.9,50,29.91,10.0,SSW,4.6,-,N/A,,Overcast,200,2013-03-31 11:54:00
8:54 AM,41.0,24.1,51,29.89,10.0,South,15.0,-,N/A,,Overcast,170,2013-03-31 12:54:00
9:54 AM,39.0,30.9,73,29.89,7.0,South,12.7,-,0.01,Rain,Light Rain,170,2013-03-31 13:54:00
10:38 AM,37.4,33.8,87,29.84,3.0,SSE,10.4,-,0.04,Rain,Rain,160,2013-03-31 14:38:00
10:54 AM,37.9,34.0,86,29.88,3.0,SSE,9.2,-,0.07,Rain,Rain,160,2013-03-31 14:54:00
11:45 AM,39.2,35.6,87,29.81,2.5,South,11.5,-,0.08,Rain,Rain,170,2013-03-31 15:45:00
11:54 AM,39.0,37.0,93,29.85,2.5,South,9.2,-,0.09,Rain,Rain,170,2013-03-31 15:54:00
12:19 PM,39.2,37.4,93,29.78,3.0,SSE,9.2,-,0.04,Rain,Light Rain,150,2013-03-31 16:19:00
12:54 PM,41.0,39.0,93,29.79,6.0,SSE,15.0,-,0.06,Rain,Light Rain,160,2013-03-31 16:54:00
1:08 PM,41.0,37.4,87,29.74,10.0,South,16.1,-,0.00,Rain,Light Rain,170,2013-03-31 17:08:00
1:20 PM,41.0,37.4,87,29.74,10.0,SSE,15.0,-,0.00,,Overcast,160,2013-03-31 17:20:00
1:27 PM,41.0,37.4,87,29.74,10.0,South,16.1,21.9,0.00,,Overcast,170,2013-03-31 17:27:00
1:42 PM,39.2,37.4,93,29.74,10.0,South,12.7,-,0.00,,Overcast,180,2013-03-31 17:42:00
1:54 PM,39.9,37.9,93,29.77,3.0,South,11.5,-,0.00,Rain,Light Rain,170,2013-03-31 17:54:00
2:03 PM,39.2,37.4,93,29.73,1.8,South,10.4,-,0.01,Rain,Light Rain,170,2013-03-31 18:03:00
2:14 PM,39.2,37.4,93,29.72,2.0,South,9.2,-,0.01,Rain,Light Rain,170,2013-03-31 18:14:00
2:54 PM,39.0,37.9,96,29.76,2.0,South,5.8,-,0.01,Rain,Light Rain,180,2013-03-31 18:54:00
3:08 PM,39.2,37.4,93,29.71,2.0,South,6.9,-,0.01,Rain,Light Rain,180,2013-03-31 19:08:00
3:22 PM,39.2,37.4,93,29.71,3.0,South,8.1,-,0.02,Rain,Light Rain,170,2013-03-31 19:22:00
3:54 PM,39.9,37.9,93,29.74,4.0,South,6.9,-,0.02,,Overcast,190,2013-03-31 19:54:00
4:16 PM,39.2,39.2,100,29.70,2.0,SSW,5.8,-,N/A,,Overcast,210,2013-03-31 20:16:00
4:26 PM,39.2,37.4,93,29.70,1.2,SSW,4.6,-,N/A,,Overcast,210,2013-03-31 20:26:00
4:43 PM,39.2,39.2,100,29.69,0.8,SSW,6.9,-,0.00,Rain,Light Rain,200,2013-03-31 20:43:00
4:51 PM,39.2,39.2,100,29.69,1.2,SSW,5.8,-,0.00,Rain,Light Rain,210,2013-03-31 20:51:00
4:54 PM,39.9,39.0,97,29.73,1.2,SSW,4.6,-,0.00,Rain,Light Rain,210,2013-03-31 20:54:00
5:06 PM,39.2,39.2,100,29.69,0.8,SSW,6.9,-,0.00,Rain,Light Rain,200,2013-03-31 21:06:00
5:23 PM,39.2,39.2,100,29.69,0.2,SSW,6.9,-,0.00,Fog-Rain,Light Rain,200,2013-03-31 21:23:00
5:54 PM,39.9,39.0,97,29.73,0.2,SW,6.9,-,0.02,Fog-Rain,Light Rain,230,2013-03-31 21:54:00
6:09 PM,41.0,39.2,93,29.69,1.0,SW,10.4,-,0.01,Rain,Light Rain,230,2013-03-31 22:09:00
6:24 PM,41.0,39.2,93,29.70,0.2,SW,6.9,-,0.02,Fog-Rain,Light Rain,230,2013-03-31 22:24:00
6:54 PM,41.0,39.9,96,29.74,0.2,WSW,8.1,-,0.04,Fog-Rain,Light Rain,250,2013-03-31 22:54:00
7:15 PM,41.0,39.2,93,29.71,1.0,WSW,11.5,-,0.01,Rain,Light Rain,250,2013-03-31 23:15:00
7:19 PM,41.0,39.2,93,29.70,4.0,WSW,12.7,-,0.01,Rain,Light Rain,250,2013-03-31 23:19:00
7:29 PM,41.0,39.2,93,29.70,8.0,West,11.5,-,0.01,Rain,Light Rain,270,2013-03-31 23:29:00
7:54 PM,41.0,39.9,96,29.74,10.0,West,12.7,-,0.01,,Overcast,270,2013-03-31 23:54:00
8:54 PM,41.0,39.9,96,29.75,10.0,West,13.8,-,N/A,,Overcast,270,2013-04-01 00:54:00
9:26 PM,42.8,39.2,87,29.73,10.0,West,12.7,20.7,N/A,,Overcast,260,2013-04-01 01:26:00
9:33 PM,42.8,39.2,87,29.73,10.0,West,13.8,-,N/A,,Overcast,260,2013-04-01 01:33:00
9:54 PM,42.1,39.9,92,29.76,10.0,West,15.0,-,N/A,,Overcast,260,2013-04-01 01:54:00
10:49 PM,42.8,39.2,87,29.71,10.0,West,19.6,27.6,N/A,,Overcast,270,2013-04-01 02:49:00
10:54 PM,42.1,37.9,85,29.75,10.0,West,15.0,27.6,N/A,,Mostly Cloudy,270,2013-04-01 02:54:00
11:02 PM,42.8,37.4,81,29.71,10.0,West,16.1,31.1,N/A,,Mostly Cloudy,270,2013-04-01 03:02:00
11:54 PM,42.1,37.9,85,29.73,10.0,West,16.1,23.0,N/A,,Mostly Cloudy,270,2013-04-01 03:54:00